Weather History for Elefsis, Greece

Change the Weather History Date:

Wednesday, March 12, 2014

  Actual Average Record
Temperature  
Mean Temperature 52 °F -  
Max Temperature 60 °F 62 °F 68 °F (2013)
Min Temperature 44 °F 45 °F 33 °F (2005)
Degree Days  
Heating Degree Days 13    
Growing Degree Days 2 (Base 50)    
Moisture  
Dew Point 37 °F    
Average Humidity 56    
Maximum Humidity 81    
Minimum Humidity 31    
Precipitation  
Precipitation 0.00 in - - ()
Sea Level Pressure  
Sea Level Pressure 30.18 in    
Wind  
Wind Speed 8 mph ()    
Max Wind Speed 18 mph    
Max Gust Speed -    
Visibility 6.2 miles    
Events      
Averages and records for this station are not official NWS values.
T = Trace of Precipitation, MM = Missing Value Source: Averaged Metar Reports

Daily Weather History Graph

Daily Weather History Graph

Search for Another Location

Airport:

Trip Planner

Search our weather history database for the weather conditions in past years. The results will help you decide how hot, cold, wet, or windy it might be!

Date:

Astronomy

Mar. 12, 2014 Rise Set
Actual Time 6:41 AM EET 6:29 PM EET
Civil Twilight 6:15 AM EET 6:56 PM EET
Nautical Twilight 5:45 AM EET 7:26 PM EET
Astronomical Twilight 5:14 AM EET 7:57 PM EET
Moon 2:46 PM EET (3/12) 3:58 AM EET (3/12)
Length of Visible Light 12h 40m
Length of Day
11h 47m
Waxing Gibbous, 83% of the Moon is Illuminated
Mar 12
Waxing Gibbous
Mar 16
Full
Mar 24
Last Quarter
Mar 30
New
Apr 7
First Quarter

Hourly Weather History & Observations

Time (EET) Temp. Windchill Dew Point Humidity Pressure Visibility Wind Dir Wind Speed Gust Speed Precip Events Conditions
12:50 AM 48.2 °F - 37.4 °F 66% 30.18 in 6.2 mi North 8.1 mph - N/A   Mostly Cloudy
1:50 AM 46.4 °F 41.9 °F 37.4 °F 71% 30.18 in 6.2 mi NNW 9.2 mph - N/A   Mostly Cloudy
2:50 AM 46.4 °F 42.9 °F 37.4 °F 71% 30.18 in 6.2 mi NNW 6.9 mph - N/A   Mostly Cloudy
3:50 AM 46.4 °F 45.2 °F 37.4 °F 71% 30.18 in 6.2 mi Variable 3.5 mph - N/A   Scattered Clouds
4:50 AM 44.6 °F - 39.2 °F 81% 30.15 in 6.2 mi Calm Calm - N/A   Mostly Cloudy
5:20 AM 44.6 °F 40.2 °F 39.2 °F 81% 30.15 in 6.2 mi NNE 8.1 mph - N/A   Mostly Cloudy
5:50 AM 44.6 °F 41.4 °F 39.2 °F 81% 30.15 in 6.2 mi NNW 5.8 mph - N/A   Scattered Clouds
6:20 AM 44.6 °F 41.4 °F 39.2 °F 81% 30.15 in 6.2 mi North 5.8 mph - N/A   Scattered Clouds
6:50 AM 48.2 °F - 39.2 °F 71% 30.18 in 6.2 mi North 9.2 mph - N/A   Mostly Cloudy
7:20 AM 48.2 °F - 39.2 °F 71% 30.18 in 6.2 mi NW 9.2 mph - N/A   Mostly Cloudy
7:50 AM 50.0 °F - 37.4 °F 62% 30.18 in 6.2 mi NNW 11.5 mph - N/A   Mostly Cloudy
8:20 AM 50.0 °F - 35.6 °F 58% 30.18 in 6.2 mi NNW 6.9 mph - N/A   Mostly Cloudy
8:50 AM 53.6 °F - 42.8 °F 67% 30.21 in 6.2 mi NW 5.8 mph - N/A   Scattered Clouds
9:20 AM 57.2 °F - 42.8 °F 59% 30.21 in 6.2 mi NW 9.2 mph - N/A   Scattered Clouds
9:50 AM 55.4 °F - 39.2 °F 54% 30.21 in 6.2 mi NNW 11.5 mph - N/A   Scattered Clouds
10:50 AM 55.4 °F - 37.4 °F 51% 30.21 in 6.2 mi NNW 13.8 mph - N/A   Scattered Clouds
11:20 AM 55.4 °F - 37.4 °F 51% 30.21 in 6.2 mi NNW 16.1 mph - N/A   Scattered Clouds
11:50 AM 55.4 °F - 42.8 °F 63% 30.21 in 6.2 mi NNW 16.1 mph - N/A   Scattered Clouds
12:20 PM 59.0 °F - 35.6 °F 42% 30.21 in 6.2 mi North 16.1 mph - N/A   Scattered Clouds
1:20 PM 59.0 °F - 35.6 °F 42% 30.18 in 6.2 mi NNW 16.1 mph - N/A   Partly Cloudy
1:50 PM 59.0 °F - 32.0 °F 36% 30.18 in 6.2 mi NNW 18.4 mph - N/A   Partly Cloudy
2:20 PM 59.0 °F - 32.0 °F 36% 30.18 in 6.2 mi NNW 18.4 mph - N/A   Partly Cloudy
2:50 PM 60.8 °F - 33.8 °F 36% 30.15 in 6.2 mi North 18.4 mph - N/A   Partly Cloudy
3:20 PM 60.8 °F - 33.8 °F 36% 30.15 in 6.2 mi North 18.4 mph - N/A   Partly Cloudy
3:50 PM 59.0 °F - 35.6 °F 42% 30.15 in - NNW 16.1 mph - N/A   Clear
4:20 PM 59.0 °F - 35.6 °F 42% 30.15 in - North 13.8 mph - N/A   Clear
4:50 PM 59.0 °F - 28.4 °F 31% 30.15 in - North 13.8 mph - N/A   Clear
5:20 PM 59.0 °F - 28.4 °F 31% 30.15 in - North 13.8 mph - N/A   Clear
5:50 PM 57.2 °F - 37.4 °F 48% 30.18 in - NNW 6.9 mph - N/A   Clear
6:20 PM 57.2 °F - 37.4 °F 48% 30.18 in - NNW 6.9 mph - N/A   Clear
6:50 PM 55.4 °F - 35.6 °F 47% 30.18 in - NNW 4.6 mph - N/A   Clear
7:20 PM 55.4 °F - 35.6 °F 47% 30.18 in - NNW 5.8 mph - N/A   Clear
7:50 PM 53.6 °F - 35.6 °F 51% 30.18 in - North 4.6 mph - N/A   Clear
8:20 PM 53.6 °F - 35.6 °F 51% 30.18 in - North 4.6 mph - N/A   Clear
8:50 PM 50.0 °F - 37.4 °F 62% 30.18 in - Calm Calm - N/A   Clear
9:20 PM 50.0 °F - 37.4 °F 62% 30.18 in - Calm Calm - N/A   Clear
9:50 PM 50.0 °F - 37.4 °F 62% 30.18 in - Calm Calm - N/A   Clear
10:20 PM 50.0 °F - 37.4 °F 62% 30.18 in - Calm Calm - N/A   Clear
10:50 PM 48.2 °F - 37.4 °F 66% 30.21 in - Calm Calm - N/A   Clear
11:50 PM 48.2 °F - 35.6 °F 62% 30.21 in - Calm Calm - N/A   Clear